Location: Newark
(34.7229°N, 135.2511°E)
Time: 05:35:28
(UTC+00:00)

ISS - Visible Passes

Search period start: 22 August 2019 00:00
Search period end: 01 September 2019 00:00
Orbit: 410 x 421 km, 51.6° (Epoch: 22 August)

Date Brightness Start Highest point End Pass type
(mag) Time Alt. Az. Time Alt. Az. Time Alt. Az.
23 Aug -1.6 19:53:19 10° S 19:55:59 23° SE 19:58:41 10° ENE visible
24 Aug -1.0 19:06:04 10° SSE 19:07:25 12° SE 19:08:46 10° ESE visible
25 Aug -3.7 19:51:41 10° SW 19:55:00 81° SE 19:58:21 10° NE visible
26 Aug -2.7 19:04:55 25° S 19:06:17 39° SE 19:09:25 10° ENE visible
27 Aug -1.3 18:18:26 18° ESE 18:18:26 18° ESE 18:20:09 10° E visible
27 Aug -2.7 19:51:20 11° W 19:54:11 31° NW 19:57:14 10° NNE visible
28 Aug -3.6 19:04:44 48° W 19:05:20 58° NW 19:08:37 10° NE visible
29 Aug -1.8 18:18:04 29° ENE 18:18:04 29° ENE 18:19:51 10° NE visible
29 Aug -1.4 19:51:41 10° WNW 19:53:35 14° NNW 19:55:28 10° N visible
30 Aug -2.1 19:04:13 21° NW 19:04:33 21° NNW 19:07:12 10° NNE visible
31 Aug -1.3 18:17:24 20° NNE 18:17:24 20° NNE 18:18:42 10° NNE visible
